CAPE
4 5 7 17 15 9 4 3 3 2 1 2 5 3 2 0 0 0 0 0 0 0 3 22 59 48 0 0 0 0 93 101 83 77 39 8 7 28 53 0 28 59 19 1 0 0 0
5 1 1 5 5 8 2 3 2 1 1 2 5 2 0 0 0 0 0 0 0 0 0 59 74 0 0 0 0 0 0 13 27 44 14 9 28 7 6 0 1 12 1 0 0 0 0
5 3 1 2 4 7 4 1 2 1 2 4 3 2 0 0 0 0 0 0 0 0 0 13 51 0 0 0 0 0 0 15 1 18 13 0 0 20 0 0 0 3 0 0 0 0 0
7 6 3 5 6 5 8 8 3 3 3 4 3 1 0 0 0 0 0 0 0 0 0 0 2 0 0 0 0 0 0 17 0 14 31 18 11 11 10 8 0 14 0 0 0 0 0
7 6 5 5 4 7 7 8 6 4 2 3 3 1 0 0 0 0 0 0 0 0 0 0 0 0 0 0 0 0 0 0 19 0 8 12 6 18 33 5 2 6 0 0 0 0 0
4 7 5 5 6 7 5 5 5 4 3 1 3 2 0 0 0 0 0 0 0 0 0 0 0 0 0 0 0 0 0 1 9 26 13 6 8 4 6 0 0 0 0 0 0 0 0
3 6 6 6 6 6 3 3 3 3 3 3 2 1 0 0 0 0 0 0 0 0 0 0 0 0 0 0 0 0 0 0 0 0 0 0 0 0 0 0 0 0 0 0 0 0 0
1 5 6 4 4 3 2 1 1 1 2 3 1 0 0 0 0 0 0 0 0 0 0 0 0 0 0 0 0 0 0 0 0 0 0 0 0 0 0 0 0 0 0 0 0 0 0
4 3 5 3 2 1 0 0 0 0 1 2 1 0 0 0 0 0 0 0 0 0 0 0 0 0 0 0 0 0 0 0 0 0 0 0 0 0 0 0 0 0 0 0 0 0 0
2 4 4 1 0 0 0 0 0 0 0 2 1 0 0 0 0 0 0 0 0 0 0 0 0 0 0 0 0 0 0 0 0 0 0 0 0 0 0 0 0 0 0 0 0 0 11
4 2 0 0 0 0 0 0 0 0 1 2 1 0 0 0 0 0 0 0 0 0 0 0 0 0 0 0 0 0 0 0 0 0 0 0 0 0 0 0 0 0 0 0 0 0 5
5 1 0 0 0 0 0 0 0 0 0 0 0 0 0 0 0 0 0 0 0 0 0 0 0 0 0 0 0 0 0 0 0 0 0 0 0 0 0 0 0 0 0 0 0 0 2
1 0 0 0 0 0 0 0 0 0 0 1 0 0 0 0 0 0 0 0 0 0 0 0 0 0 0 0 0 0 0 0 0 0 0 0 0 0 0 0 0 0 0 0 13 0 0
1 0 0 0 0 0 0 0 0 0 0 1 0 0 0 0 0 0 0 0 0 0 0 0 0 0 0 0 0 0 0 0 0 0 0 0 0 0 0 0 0 0 0 0 0 0 0
0 1 4 0 0 0 0 0 0 0 0 0 0 0 0 0 0 0 0 0 0 0 0 0 0 0 0 0 0 0 0 0 0 0 0 0 0 0 0 0 0 0 0 0 0 0 0
6 0 0 0 0 0 0 0 0 0 0 0 0 0 0 0 0 0 0 0 0 0 0 0 0 0 0 0 0 0 0 0 0 0 0 0 0 0 0 0 0 0 0 0 0 0 0
9 2 0 1 0 0 0 0 0 0 0 0 0 0 0 0 0 0 0 0 0 0 0 0 0 0 0 0 0 0 0 0 0 0 0 0 0 0 0 0 0 0 0 0 0 0 0
9 7 1 1 0 0 0 0 0 0 0 0 0 0 0 0 0 0 0 0 0 0 0 0 0 0 0 0 0 0 0 0 0 0 0 0 0 0 0 0 0 0 0 0 0 0 0
11 9 5 0 0 0 0 0 0 0 0 0 0 0 0 0 0 0 0 0 0 0 0 0 0 0 0 0 0 0 0 0 0 0 0 0 0 0 0 0 0 0 0 0 0 0 0
12 13 5 3 0 0 0 0 0 0 0 0 0 0 0 0 0 0 0 0 0 0 0 0 0 0 0 0 0 0 0 0 0 0 0 0 0 0 0 0 0 0 0 0 0 0 0
16 14 8 7 0 0 0 0 0 0 0 0 0 0 0 0 0 0 0 0 0 0 0 0 0 0 0 0 0 0 0 0 0 0 0 0 0 0 0 0 0 0 0 0 0 0 0
13 16 14 8 0 0 0 0 0 0 0 0 0 0 0 0 0 0 0 0 0 0 0 0 0 0 0 0 0 0 0 0 0 0 0 0 0 0 0 0 0 0 0 0 0 0 0
19 12 10 8 0 0 0 0 0 0 0 0 0 0 0 0 0 0 0 0 0 0 0 0 0 0 0 0 0 0 0 0 0 0 0 0 0 0 0 0 0 0 0 0 0 0 0
16 8 11 7 0 0 0 0 0 0 0 0 0 0 0 0 0 0 0 0 0 0 0 0 0 0 0 0 0 0 0 0 0 0 0 0 0 0 0 0 0 0 0 0 0 0 0
17 12 17 18 0 0 0 0 0 0 0 0 0 0 0 0 0 0 0 0 0 0 0 0 0 0 0 0 0 0 0 0 0 0 0 0 0 0 0 0 0 0 0 0 0 0 0
26 22 33 33 1 0 0 0 0 0 0 0 0 0 0 0 0 0 0 0 0 0 0 0 0 0 0 0 0 0 0 0 0 0 0 0 0 0 0 0 0 0 0 0 0 0 0
42 28 22 8 0 0 0 0 0 0 0 0 0 0 0 0 0 0 0 0 0 0 0 0 0 0 0 0 0 0 0 0 0 0 0 0 0 0 0 0 0 0 0 0 0 0 0
9 9 8 7 6 4 2 1 0 0 0 0 0 0 0 0 0 0 0 0 0 0 0 0 0 0 0 0 0 0 0 0 0 0 0 0 0 0 0 0 0 0 0 0 0 0 0
16 10 7 5 4 4 3 0 0 0 0 0 0 0 0 0 0 0 0 0 0 0 0 0 0 0 0 0 0 0 0 0 0 0 0 0 0 0 0 0 0 0 0 0 0 0 0
CIN
-0 -0 -0 -1 -2 -1 -0 -0 -0 -0 -0 -0 -0 -0 -0 -0 -0 -0 -0 -0 -0 -0 -63 -34 -27 -43 -0 -0 -0 -0 -22 -27 -35 -50 -9 -20 -19 -11 -10 -0 -13 -13 -13 -3 -0 -0 -0
-0 -0 -0 -0 -0 -0 -0 -0 -0 -0 -0 -0 -0 -0 -0 -0 -0 -0 -0 -0 -0 -0 -0 -40 -34 -0 -0 -0 -0 -0 -0 -35 -28 -23 -47 -23 -10 -8 -28 -0 -5 -27 -7 -0 -0 -0 -0
-0 -0 -0 -0 -0 -0 -0 -0 -0 -0 -0 -0 -0 -0 -0 -0 -0 -0 -0 -0 -0 -0 -0 -72 -45 -0 -0 -0 -0 -0 -0 -18 -22 -44 -61 -0 -2 -11 -2 -0 -0 -56 -5 -0 -0 -0 -0
-0 -0 -0 -0 -0 -0 -0 -0 -0 -0 -0 -0 -0 -0 -0 -0 -0 -0 -0 -0 -0 -0 -0 -0 -38 -0 -0 -0 -0 -0 -0 -36 -0 -50 -63 -84 -67 -62 -22 -18 -1 -37 -0 -0 -0 -0 -0
-0 -0 -0 -0 -0 -0 -0 -0 -0 -0 -0 -0 -0 -0 -0 -0 -0 -0 -0 -0 -0 -0 -0 -0 -0 -0 -0 -0 -0 -0 -0 -3 -30 -0 -45 -13 -9 -7 -7 -5 -2 -13 -0 -0 -0 -0 -0
-0 -0 -0 -0 -0 -0 -0 -0 -0 -0 -0 -0 -0 -0 -0 -0 -0 -0 -0 -0 -0 -0 -0 -0 -0 -0 -0 -0 -0 -0 -0 -3 -25 -15 -19 -14 -21 -9 -4 -0 -0 -0 -0 -0 -0 -0 -0
-0 -0 -0 -0 -0 -0 -0 -0 -0 -0 -0 -0 -0 -0 -0 -0 -0 -0 -0 -0 -0 -0 -0 -0 -0 -0 -0 -0 -0 -0 -0 -0 -0 -0 -0 -0 -0 -0 -0 -0 -0 -0 -0 -0 -0 -0 -0
-0 -0 -0 -0 -0 -0 -0 -0 -0 -0 -0 -0 -0 -0 -0 -0 -0 -0 -0 -0 -0 -0 -0 -0 -0 -0 -0 -0 -0 -0 -0 -0 -0 -0 -0 -0 -0 -0 -0 -0 -0 -0 -0 -0 -0 -0 -0
-0 -0 -0 -0 -0 -0 -0 -0 -0 -0 -0 -0 -0 -0 -0 -0 -0 -0 -0 -0 -0 -0 -0 -0 -0 -0 -0 -0 -0 -0 -0 -0 -0 -0 -0 -0 -0 -0 -0 -0 -0 -0 -0 -0 -0 -0 -0
-0 -0 -0 -0 -0 -0 -0 -0 -0 -0 -0 -0 -0 -0 -0 -0 -0 -0 -0 -0 -0 -0 -0 -0 -0 -0 -0 -0 -0 -0 -0 -0 -0 -0 -0 -0 -0 -0 -0 -0 -0 -0 -0 -0 -0 -0 -54
-0 -0 -0 -0 -0 -0 -0 -0 -0 -0 -0 -0 -0 -0 -0 -0 -0 -0 -0 -0 -0 -0 -0 -0 -0 -0 -0 -0 -0 -0 -0 -0 -0 -0 -0 -0 -0 -0 -0 -0 -0 -0 -0 -0 -0 -0 -12
-0 -0 -0 -0 -0 -0 -0 -0 -0 -0 -0 -0 -0 -0 -0 -0 -0 -0 -0 -0 -0 -0 -0 -0 -0 -0 -0 -0 -0 -0 -0 -0 -0 -0 -0 -0 -0 -0 -0 -0 -0 -0 -0 -0 -0 -0 -10
-0 -0 -0 -0 -0 -0 -0 -0 -0 -0 -0 -0 -0 -0 -0 -0 -0 -0 -0 -0 -0 -0 -0 -0 -0 -0 -0 -0 -0 -0 -0 -0 -0 -0 -0 -0 -0 -0 -0 -0 -0 -0 -0 -0 -8 -0 -0
-0 -0 -0 -0 -0 -0 -0 -0 -0 -0 -0 -0 -0 -0 -0 -0 -0 -0 -0 -0 -0 -0 -0 -0 -0 -0 -0 -0 -0 -0 -0 -0 -0 -0 -0 -0 -0 -0 -0 -0 -0 -0 -0 -0 -0 -0 -0
-0 -0 -0 -0 -0 -0 -0 -0 -0 -0 -0 -0 -0 -0 -0 -0 -0 -0 -0 -0 -0 -0 -0 -0 -0 -0 -0 -0 -0 -0 -0 -0 -0 -0 -0 -0 -0 -0 -0 -0 -0 -0 -0 -0 -0 -0 -0
-0 -0 -0 -0 -0 -0 -0 -0 -0 -0 -0 -0 -0 -0 -0 -0 -0 -0 -0 -0 -0 -0 -0 -0 -0 -0 -0 -0 -0 -0 -0 -0 -0 -0 -0 -0 -0 -0 -0 -0 -0 -0 -0 -0 -0 -0 -0
-1 -1 -0 -1 -0 -0 -0 -0 -0 -0 -0 -0 -0 -0 -0 -0 -0 -0 -0 -0 -0 -0 -0 -0 -0 -0 -0 -0 -0 -0 -0 -0 -0 -0 -0 -0 -0 -0 -0 -0 -0 -0 -0 -0 -0 -0 -0
-1 -2 -1 -1 -0 -0 -0 -0 -0 -0 -0 -0 -0 -0 -0 -0 -0 -0 -0 -0 -0 -0 -0 -0 -0 -0 -0 -0 -0 -0 -0 -0 -0 -0 -0 -0 -0 -0 -0 -0 -0 -0 -0 -0 -0 -0 -0
-2 -2 -3 -0 -0 -0 -0 -0 -0 -0 -0 -0 -0 -0 -0 -0 -0 -0 -0 -0 -0 -0 -0 -0 -0 -0 -0 -0 -0 -0 -0 -0 -0 -0 -0 -0 -0 -0 -0 -0 -0 -0 -0 -0 -0 -0 -0
-3 -3 -4 -5 -0 -0 -0 -0 -0 -0 -0 -0 -0 -0 -0 -0 -0 -0 -0 -0 -0 -0 -0 -0 -0 -0 -0 -0 -0 -0 -0 -0 -0 -0 -0 -0 -0 -0 -0 -0 -0 -0 -0 -0 -0 -0 -0
-5 -5 -5 -5 -0 -0 -0 -0 -0 -0 -0 -0 -0 -0 -0 -0 -0 -0 -0 -0 -0 -0 -0 -0 -0 -0 -0 -0 -0 -0 -0 -0 -0 -0 -0 -0 -0 -0 -0 -0 -0 -0 -0 -0 -0 -0 -0
-7 -6 -4 -5 -0 -0 -0 -0 -0 -0 -0 -0 -0 -0 -0 -0 -0 -0 -0 -0 -0 -0 -0 -0 -0 -0 -0 -0 -0 -0 -0 -0 -0 -0 -0 -0 -0 -0 -0 -0 -0 -0 -0 -0 -0 -0 -0
-9 -9 -7 -6 -0 -0 -0 -0 -0 -0 -0 -0 -0 -0 -0 -0 -0 -0 -0 -0 -0 -0 -0 -0 -0 -0 -0 -0 -0 -0 -0 -0 -0 -0 -0 -0 -0 -0 -0 -0 -0 -0 -0 -0 -0 -0 -0
-11 -14 -8 -7 -0 -0 -0 -0 -0 -0 -0 -0 -0 -0 -0 -0 -0 -0 -0 -0 -0 -0 -0 -0 -0 -0 -0 -0 -0 -0 -0 -0 -0 -0 -0 -0 -0 -0 -0 -0 -0 -0 -0 -0 -0 -0 -0
-11 -11 -7 -7 -0 -0 -0 -0 -0 -0 -0 -0 -0 -0 -0 -0 -0 -0 -0 -0 -0 -0 -0 -0 -0 -0 -0 -0 -0 -0 -0 -0 -0 -0 -0 -0 -0 -0 -0 -0 -0 -0 -0 -0 -0 -0 -0
-6 -7 -7 -7 -5 -13 -0 -0 -0 -0 -0 -0 -0 -0 -0 -0 -0 -0 -0 -0 -0 -0 -0 -0 -0 -0 -0 -0 -0 -0 -0 -0 -0 -0 -0 -0 -0 -0 -0 -0 -0 -0 -0 -0 -0 -0 -0
-1 -4 -6 -4 -0 -0 -0 -0 -0 -0 -0 -0 -0 -0 -0 -0 -0 -0 -0 -0 -0 -0 -0 -0 -0 -0 -0 -0 -0 -0 -0 -0 -0 -0 -0 -0 -0 -0 -0 -0 -0 -0 -0 -0 -0 -0 -0
-0 -0 -0 -0 -0 -0 -0 -0 -0 -0 -0 -0 -0 -0 -0 -0 -0 -0 -0 -0 -0 -0 -0 -0 -0 -0 -0 -0 -0 -0 -0 -0 -0 -0 -0 -0 -0 -0 -0 -0 -0 -0 -0 -0 -0 -0 -0
-0 -0 -0 -0 -0 -0 -0 -0 -0 -0 -0 -0 -0 -0 -0 -0 -0 -0 -0 -0 -0 -0 -0 -0 -0 -0 -0 -0 -0 -0 -0 -0 -0 -0 -0 -0 -0 -0 -0 -0 -0 -0 -0 -0 -0 -0 -0
Wind_Speed
10 10 11 12 12 12 12 12 12 11 11 10 10 10 10 10 11 11 11 12 12 11 10 11 10 11 2 4 3 7 12 12 5 4 5 4 0 3 3 1 3 9 4 10 14 8 9
9 10 11 11 12 13 14 14 13 12 11 11 10 10 9 10 10 11 12 12 13 10 9 9 8 7 3 4 4 6 7 8 4 2 1 2 6 4 3 1 1 2 2 7 7 9 7
8 10 10 11 11 12 14 14 14 13 12 11 11 10 10 10 11 11 12 13 12 9 7 7 7 3 3 3 3 7 6 2 3 3 3 3 2 2 1 4 5 2 3 5 6 6 5
9 9 10 11 12 13 13 13 14 14 13 13 12 10 10 11 11 11 11 12 10 9 7 5 5 1 2 3 2 6 5 2 5 5 4 4 2 5 2 3 2 1 3 2 5 6 1
9 10 10 11 12 13 14 14 14 14 15 14 14 12 11 11 12 12 11 12 10 7 8 5 2 2 5 5 3 5 2 1 2 3 2 5 2 2 2 0 2 1 3 4 1 5 3
9 10 10 11 12 13 14 14 15 15 15 15 14 13 12 11 12 11 13 6 4 6 1 1 2 3 5 5 4 5 3 2 1 4 3 3 1 3 4 4 3 6 6 3 4 3 4
9 10 10 11 12 13 14 14 15 16 16 15 14 14 13 11 10 9 7 3 6 4 6 1 3 3 4 6 3 4 3 3 2 3 1 3 3 3 5 2 2 4 3 3 1 3 7
9 10 11 11 12 13 14 15 15 16 17 16 14 14 13 12 9 6 1 4 4 3 3 4 5 4 4 1 4 4 1 2 2 1 2 3 1 5 7 5 5 2 3 3 1 2 5
10 11 12 12 13 13 14 15 16 17 17 17 16 13 12 11 7 4 4 4 1 0 2 3 4 4 5 1 3 4 3 3 2 4 4 3 5 7 4 5 6 2 5 4 6 3 5
10 11 12 13 14 14 15 15 16 17 16 16 16 14 11 14 3 2 3 0 2 1 6 8 4 3 1 2 5 3 1 1 2 4 3 1 7 5 3 1 3 3 5 2 6 5 5
10 11 12 13 14 15 16 16 17 17 16 16 15 12 12 5 3 3 3 1 2 4 7 6 6 1 2 1 5 6 1 1 3 4 3 4 7 6 3 3 3 2 4 3 1 5 5
11 11 12 14 15 16 16 16 17 17 16 15 15 11 10 3 3 1 3 4 4 9 3 6 4 6 6 1 3 5 3 2 3 3 3 3 1 3 6 6 2 5 4 7 4 4 4
11 12 13 14 15 15 16 16 16 17 18 16 13 9 4 1 1 2 3 3 7 8 4 8 4 5 4 4 5 4 4 7 4 6 6 6 3 6 4 6 5 5 6 4 5 5 5
12 13 13 14 14 14 15 16 17 17 17 17 13 3 4 1 2 3 3 7 8 5 4 3 3 6 2 4 2 6 4 6 4 3 3 4 8 3 4 2 2 4 4 6 5 3 4
11 13 14 13 13 13 15 16 17 18 18 19 6 2 1 1 2 3 6 7 7 6 2 4 6 4 5 4 1 3 2 2 3 4 3 3 4 2 2 2 2 4 5 3 4 2 3
10 12 12 14 12 13 15 17 18 18 19 14 1 1 1 2 3 4 6 4 3 3 1 1 1 2 3 5 6 4 4 2 4 2 1 1 1 2 3 1 1 2 1 1 3 1 2
10 12 11 13 10 11 13 15 17 19 20 3 3 3 2 3 3 6 4 5 3 3 3 4 3 2 1 1 2 3 3 2 2 6 2 1 2 4 2 3 1 2 1 1 3 3 4
13 12 11 11 9 10 12 13 15 17 20 6 3 2 2 2 4 1 3 3 1 3 3 2 2 2 3 2 0 2 2 3 1 1 4 3 2 3 3 2 1 1 2 2 4 3 1
15 13 12 11 9 9 10 12 13 14 11 2 2 2 1 3 2 1 3 1 2 2 4 3 4 3 2 3 1 3 2 2 1 1 1 1 2 3 8 5 1 2 2 1 3 3 2
15 13 12 11 9 9 9 10 12 12 10 3 2 2 5 4 1 5 3 3 3 2 3 3 3 2 1 2 4 2 2 2 2 1 3 1 1 6 6 4 0 3 3 3 5 3 3
16 13 12 11 9 8 8 10 11 12 11 4 3 3 4 2 2 2 3 3 3 3 3 2 2 5 4 3 1 3 2 2 1 1 1 1 3 1 6 7 3 4 5 4 5 3 4
17 14 13 11 10 9 7 8 10 11 5 4 1 2 2 1 1 3 2 5 6 3 6 3 3 2 4 4 4 3 2 2 1 3 1 0 3 2 5 1 3 5 7 6 4 3 6
17 16 14 13 11 9 8 6 7 11 5 2 1 1 4 3 1 3 5 4 4 4 3 2 4 1 3 3 1 1 2 1 2 1 1 1 0 2 5 3 6 7 7 7 5 5 6
18 16 16 14 13 11 9 7 4 6 3 3 2 3 4 4 3 5 3 3 5 4 2 2 3 4 1 3 3 1 1 3 3 2 3 0 1 2 4 4 2 5 1 4 6 4 6
19 17 17 15 14 12 10 9 6 3 2 3 2 3 3 3 3 2 2 3 1 1 2 2 1 1 2 3 2 3 3 2 1 2 2 2 2 1 1 2 8 1 3 4 5 4 8
19 18 18 16 14 12 12 9 8 6 1 3 2 3 3 4 5 2 2 2 3 3 3 1 1 2 3 3 2 2 3 3 2 0 3 3 4 4 1 0 5 3 2 2 2 5 4
15 13 14 14 13 11 10 10 8 6 4 3 2 4 4 2 4 4 4 5 4 2 3 1 2 1 2 2 2 4 4 1 3 4 4 2 1 4 3 4 9 6 5 1 3 7 5
19 18 18 17 17 15 13 11 9 5 4 3 2 2 4 3 5 5 3 4 2 2 4 2 3 1 2 2 3 4 3 3 1 4 6 7 7 5 2 2 9 6 4 7 6 2 3
14 15 14 15 15 14 13 11 10 9 7 4 2 1 1 3 4 2 3 4 4 5 5 2 3 3 4 3 2 1 3 1 3 4 2 3 7 6 10 8 4 7 5 5 4 3 4
Wind_Direction
29 14 17 12 8 5 6 5 359 349 340 335 331 325 325 327 327 328 331 329 323 315 311 304 324 334 36 48 296 271 316 321 313 195 189 167 337 212 230 304 223 242 284 222 257 278 289
23 16 15 14 9 6 6 4 359 351 340 334 335 333 330 328 325 325 325 326 323 310 303 299 318 333 45 47 256 292 308 309 328 142 53 138 171 185 121 264 263 195 286 285 282 263 262
16 17 13 9 7 7 7 4 1 353 342 336 332 333 332 327 322 322 322 324 328 313 306 304 318 352 46 247 251 307 303 263 328 137 80 8 116 133 275 337 354 296 333 315 257 250 237
10 13 12 5 3 6 5 4 0 356 351 339 337 330 326 322 320 319 317 316 322 316 311 301 305 41 266 255 228 319 338 26 42 73 107 157 117 112 137 223 249 88 23 234 246 200 73
9 9 9 4 4 4 1 1 357 357 352 342 337 334 326 322 320 318 311 306 301 297 303 301 5 104 325 319 346 295 295 298 127 123 167 122 121 95 26 204 82 52 212 193 205 174 133
7 5 5 4 2 1 0 359 355 355 355 344 335 334 330 324 320 319 314 290 288 329 341 253 259 41 327 299 279 295 268 272 239 153 159 209 124 158 190 187 189 184 156 154 188 186 70
5 6 1 2 360 357 358 356 354 354 354 348 338 330 326 323 319 325 342 20 20 350 34 208 255 197 270 293 273 280 247 353 335 32 7 314 34 312 326 278 25 326 131 131 253 196 94
1 3 357 358 355 356 353 352 352 352 352 349 340 329 323 320 316 324 93 88 126 196 333 249 276 271 257 222 312 313 90 45 51 107 308 26 359 308 287 358 14 328 111 186 14 165 92
354 355 354 351 350 352 350 349 349 349 349 347 342 334 327 322 315 59 81 116 11 138 97 299 242 266 268 321 289 280 12 353 62 27 35 104 262 310 24 18 356 330 156 181 153 123 51
344 346 348 347 346 346 346 345 346 345 343 342 344 335 332 326 57 152 62 334 39 20 71 303 347 291 323 273 295 263 218 221 337 331 7 100 310 1 8 58 8 37 349 89 146 100 155
333 341 344 345 343 342 341 342 343 341 342 342 342 340 335 344 158 78 170 122 73 59 48 281 300 266 329 337 299 336 11 34 352 312 74 298 3 11 8 298 5 270 345 129 75 83 83
330 335 340 343 339 337 336 337 338 337 339 342 343 343 341 27 56 153 134 85 59 44 297 329 308 348 0 291 291 300 356 14 262 1 25 328 316 350 353 309 224 298 53 47 56 82 45
319 324 331 333 333 333 331 333 335 337 338 338 339 340 3 62 189 161 100 58 39 89 313 314 321 341 338 303 328 4 20 9 39 48 356 348 12 333 33 327 347 56 47 14 8 14 213
312 314 320 323 326 329 331 332 333 335 338 336 327 12 338 96 148 107 56 54 72 245 262 340 331 315 328 353 308 12 25 3 0 53 80 69 346 3 332 133 236 4 109 143 181 188 243
294 304 310 313 320 329 333 332 332 334 336 340 321 32 33 257 138 72 76 50 193 202 251 327 322 48 332 340 285 60 58 308 304 10 73 60 321 299 279 319 45 328 46 189 100 76 58
276 288 300 308 315 326 333 334 333 335 337 342 40 69 257 170 114 76 74 198 213 227 207 157 80 50 350 314 13 19 351 307 313 39 34 305 333 221 279 194 283 65 229 72 1 206 281
263 276 289 301 308 319 325 331 333 338 340 14 60 44 268 129 75 51 115 219 209 224 191 165 198 288 266 335 310 339 310 311 346 310 290 48 108 295 345 19 196 359 317 65 127 138 158
260 267 277 291 298 311 318 325 334 342 345 47 88 30 319 77 48 42 133 180 298 227 214 237 180 220 242 253 352 321 294 234 321 221 338 354 166 253 240 272 216 243 251 147 126 236 71
249 256 268 276 285 302 314 322 333 344 21 2 77 236 325 95 105 341 278 253 209 209 235 217 222 194 210 246 227 198 238 209 233 334 210 320 328 358 345 352 17 267 232 144 92 66 215
240 244 256 266 270 292 307 318 325 335 351 95 62 11 326 51 138 136 177 237 253 217 259 243 245 185 220 255 238 277 261 227 215 223 170 86 179 175 202 241 86 281 219 196 145 111 193
230 236 245 249 255 273 294 311 323 332 351 102 33 246 189 279 309 157 162 191 204 245 219 202 255 236 192 214 265 237 332 340 284 313 351 93 260 212 262 253 250 242 244 208 198 219 158
221 225 233 238 237 254 273 302 320 335 11 81 194 143 9 249 287 170 193 227 205 201 165 230 231 218 211 218 212 214 174 197 228 336 295 176 278 344 289 302 208 269 248 234 241 261 272
215 217 224 228 227 234 245 272 315 341 16 111 249 322 109 265 209 129 220 218 217 162 195 185 183 312 263 263 188 242 196 165 197 246 291 337 97 46 272 354 328 296 238 183 191 202 166
212 214 219 220 221 220 229 237 275 335 68 126 193 114 101 266 180 216 244 199 202 210 222 193 152 147 303 331 313 310 256 225 213 205 161 221 132 140 267 333 351 251 125 172 205 249 215
215 215 216 213 212 209 215 222 222 258 67 113 168 132 145 241 208 285 241 228 132 72 266 235 257 168 111 25 5 350 332 351 41 64 127 127 111 348 75 269 288 138 208 173 174 274 194
215 217 218 207 202 197 203 210 215 220 157 109 160 132 128 129 245 140 211 221 193 185 342 240 348 313 72 100 74 249 243 244 245 137 49 83 86 119 131 185 251 245 209 240 190 299 225
197 186 181 170 158 165 184 183 193 208 195 143 180 166 110 166 257 138 206 199 151 128 162 286 197 123 32 106 167 198 256 209 222 197 176 141 115 190 197 239 283 233 186 155 113 236 173
122 121 125 126 120 116 112 114 115 116 177 161 213 188 143 175 266 191 202 186 123 127 154 190 53 332 47 150 167 229 197 238 264 190 183 174 157 205 139 207 277 160 80 170 215 226 195
107 108 108 107 108 109 106 97 86 66 38 184 176 159 186 143 246 256 235 250 215 181 136 160 184 174 200 101 234 115 244 240 187 248 125 244 199 188 184 214 234 209 207 215 173 194 223